FW93366 Weather Reports


Display with metric or nautical units.
time (UTC)temp
F
wind
direction
speed
MPH
gust
MPH
rain 1hr
in
rain 24hr
in
rain mn
in
humidity
%
barometer
mb
20260904154557 61 157 8.0 18.0 0.00 0.00 0.00 52 1013.2
20260904153122 60 162 7.0 17.0 0.00 0.00 0.00 53 1013.2
20260904151545 60 153 5.0 18.0 0.00 0.00 0.00 52 1013.1
20260904150057 60 140 5.0 13.0 0.00 0.00 0.00 53 1013.1
20260904144549 60 155 6.0 13.0 0.00 0.00 0.00 53 1013.1
20260904143055 60 134 6.0 17.0 0.00 0.00 0.00 52 1012.9
20260904141557 60 159 6.0 12.0 0.00 0.00 0.00 53 1012.8
20260904140050 59 161 6.0 17.0 0.00 0.00 0.00 54 1012.6
20260904134553 60 196 4.0 17.0 0.00 0.00 0.00 53 1012.6
20260904133101 59 165 6.0 23.0 0.00 0.00 0.00 54 1012.4
20260904131626 60 206 5.0 15.0 0.00 0.00 0.00 53 1012.4
20260904130056 60 178 5.0 16.0 0.00 0.00 0.00 53 1012.2
20260904124547 60 164 4.0 17.0 0.00 0.00 0.00 53 1012.1
20260904123101 60 86 5.0 17.0 0.00 0.00 0.00 53 1012.2
20260904121554 60 159 3.0 20.0 0.00 0.00 0.00 53 1012.0
20260904120054 60 152 4.0 17.0 0.00 0.00 0.00 52 1012.0
20260904114553 60 154 4.0 11.0 0.00 0.00 0.00 52 1011.8
20260904113052 60 147 3.0 14.0 0.00 0.00 0.00 52 1011.8
20260904111553 60 156 3.0 11.0 0.00 0.00 0.00 52 1011.8
20260904110054 60 128 4.0 13.0 0.00 0.00 0.00 51 1011.9
20260904104604 60 63 3.0 11.0 0.00 0.00 0.00 51 1011.9
20260904103056 60 155 4.0 12.0 0.00 0.00 0.00 51 1011.8
20260904101551 60 167 3.0 16.0 0.00 0.00 0.00 52 1011.8
20260904100045 60 162 4.0 14.0 0.00 0.00 0.00 52 1012.0
20260904094558 60 159 4.0 10.0 0.00 0.00 0.00 52 1011.8
20260904093056 61 96 4.0 12.0 0.00 0.00 0.00 51 1011.9
20260904091606 61 171 4.0 13.0 0.00 0.00 0.00 51 1012.0
20260904090051 61 125 4.0 11.0 0.00 0.00 0.00 51 1012.1
20260904084546 60 153 4.0 13.0 0.00 0.00 0.00 51 1012.2
20260904083107 60 146 4.0 14.0 0.00 0.00 0.00 51 1012.3
20260904081550 60 167 5.0 12.0 0.00 0.00 0.00 52 1012.3
20260904080045 60 130 1.0 9.0 0.00 0.00 0.00 51 1012.4
20260904074606 60 180 3.0 9.0 0.00 0.00 0.00 51 1012.5
20260904073053 60 101 3.0 10.0 0.00 0.00 0.00 51 1012.5
20260904071547 60 177 4.0 11.0 0.00 0.00 0.00 50 1012.4
20260904070056 60 109 4.0 17.0 0.00 0.00 0.00 49 1012.3
20260904064553 60 134 3.0 12.0 0.00 0.00 0.00 49 1012.4
20260904063053 60 156 4.0 14.0 0.00 0.00 0.00 49 1012.2
20260904061546 60 178 6.0 16.0 0.00 0.00 0.00 48 1012.2
20260904060045 60 158 5.0 14.0 0.00 0.00 0.00 48 1012.3
20260904054558 60 103 6.0 14.0 0.00 0.00 0.00 48 1012.4
20260904053047 60 163 4.0 11.0 0.00 0.00 0.00 48 1012.5
20260904051548 61 173 5.0 17.0 0.00 0.00 0.00 47 1012.8
20260904044605 61 156 5.0 19.0 0.00 0.00 0.00 47 1012.9
20260904043055 61 157 4.0 16.0 0.00 0.00 0.00 46 1012.6
20260904041551 61 160 5.0 14.0 0.00 0.00 0.00 46 1012.7
20260904040103 61 185 5.0 17.0 0.00 0.00 0.00 46 1012.5
20260904034607 61 116 5.0 17.0 0.00 0.00 0.00 46 1012.3
20260904033056 62 175 6.0 19.0 0.00 0.00 0.00 46 1012.4
20260904031551 62 167 4.0 18.0 0.00 0.00 0.00 46 1012.2
20260904030046 62 123 4.0 26.0 0.00 0.00 0.00 46 1012.2
20260904024547 62 163 6.0 19.0 0.00 0.00 0.00 46 1012.2
20260904023055 63 107 3.0 15.0 0.00 0.00 0.00 45 1012.0
20260904021559 63 169 6.0 15.0 0.00 0.00 0.00 45 1012.0
20260904020057 63 173 6.0 18.0 0.00 0.00 0.00 45 1012.2
20260904014640 64 166 7.0 18.0 0.00 0.00 0.00 43 1012.2
20260904013056 64 182 7.0 17.0 0.00 0.00 0.00 43 1012.2
20260904011556 64 175 7.0 17.0 0.00 0.00 0.00 43 1012.3
20260904010107 65 161 6.0 25.0 0.00 0.00 0.00 42 1012.3
20260904004555 65 180 8.0 17.0 0.00 0.00 0.00 42 1012.5
20260904003057 66 184 7.0 20.0 0.00 0.00 0.00 42 1012.5
20260904001548 66 190 9.0 23.0 0.00 0.00 0.00 43 1012.5
20260903234550 66 155 9.0 24.0 0.00 0.00 0.00 43 1012.9
20260903233103 66 161 8.0 18.0 0.00 0.00 0.00 43 1013.1
20260903231546 66 187 10.0 23.0 0.00 0.00 0.00 43 1013.4
20260903230057 66 229 10.0 24.0 0.00 0.00 0.00 42 1013.4
20260903224552 67 192 11.0 19.0 0.00 0.00 0.00 41 1013.4
20260903223055 68 132 11.0 26.0 0.00 0.00 0.00 40 1013.4
20260903221558 69 201 13.0 24.0 0.00 0.00 0.00 38 1013.5
20260903220116 69 165 11.0 25.0 0.00 0.00 0.00 38 1013.5
20260903214545 69 149 13.0 24.0 0.00 0.00 0.00 37 1013.4
20260903213044 68 207 11.0 23.0 0.00 0.00 0.00 39 1013.4
20260903211558 69 157 11.0 21.0 0.00 0.00 0.00 37 1013.3
20260903210058 71 242 10.0 19.0 0.00 0.00 0.00 36 1013.4
20260903204556 70 227 10.0 21.0 0.00 0.00 0.00 36 1013.4
20260903203107 71 209 6.0 18.0 0.00 0.00 0.00 35 1013.6
20260903201557 72 174 5.0 17.0 0.00 0.00 0.00 34 1013.6
20260903200054 72 150 8.0 19.0 0.00 0.00 0.00 32 1013.7
20260903194556 71 211 7.0 18.0 0.00 0.00 0.00 33 1013.7
20260903193049 72 170 5.0 15.0 0.00 0.00 0.00 33 1013.8
20260903191557 71 190 7.0 17.0 0.00 0.00 0.00 33 1013.8
20260903190051 71 232 5.0 16.0 0.00 0.00 0.00 32 1014.2
20260903184546 69 144 3.0 12.0 0.00 0.00 0.00 33 1014.2
20260903183057 69 241 4.0 14.0 0.00 0.00 0.00 34 1014.5
20260903181549 69 163 5.0 11.0 0.00 0.00 0.00 32 1014.7
20260903180049 69 169 6.0 14.0 0.00 0.00 0.00 32 1014.6
20260903174547 68 242 1.0 5.0 0.00 0.00 0.00 33 1014.7
20260903173059 67 0 1.0 7.0 0.00 0.00 0.00 32 1014.8
20260903171553 67 350 0.0 4.0 0.00 0.00 0.00 33 1015.0
20260903170049 67 270 3.0 8.0 0.00 0.00 0.00 31 1015.2
20260903164556 67 57 1.0 3.0 0.00 0.00 0.00 32 1015.3
20260903163047 66 0 0.0 3.0 0.00 0.00 0.00 30 1015.5
20260903161546 65 0 1.0 4.0 0.00 0.00 0.00 30 1015.7
20260903160046 63 0 0.0 3.0 0.00 0.00 0.00 38 1015.7